Location: Biert
(42.8989°N, 1.3148°E)
Time: 04:37:26
(UTC+00:00)

Daily predictions for brighter satellites

Satellite Brightness Start Highest point End
(mag) Time Altitude Azimuth Time Altitude Azimuth Time Altitude Azimuth
SL-16 R/B 4.1 00:06:04 20° WNW 00:06:54 21° NW 00:11:09 10° N
Cosmos 1943 Rocket 4.5 00:04:08 10° N 00:08:00 18° NE 00:10:24 14° ENE
Tsikada Rocket 4.5 00:30:35 54° NNW 00:30:35 54° NNW 00:35:27 10° N
USA 215 4.1 00:29:42 10° ENE 00:34:07 37° E 00:34:07 37° E
Lacrosse 5 4.2 00:35:37 17° NW 00:37:38 21° NNW 00:41:28 10° NNE
NOSS 0 Rocket 4.4 00:45:55 53° ENE 00:45:55 53° ENE 00:50:44 10° NNE
Cosmos 2237 Rocket 3.0 00:59:39 47° ENE 00:59:39 47° ENE 01:03:55 10° NNE
Cosmos 1980 4.4 01:02:35 50° NE 01:02:35 50° NE 01:06:55 10° NNE
IDEFIX/ARIANE 42P 3.9 01:00:01 10° NNE 01:03:55 32° ENE 01:03:55 32° ENE
USA 267 4.4 01:03:54 10° E 01:09:51 40° NNE 01:15:50 10° NW
CZ-2D R/B 3.5 01:05:52 10° NE 01:10:23 30° E 01:10:23 30° E
Cosmos 2360 Rocket 4.5 01:10:54 13° WNW 01:12:16 14° NW 01:15:11 10° NNW
COSMOS 2428 3.5 01:13:37 43° NW 01:13:37 43° NW 01:18:19 10° NNE
Resurs 1-4 Rocket 3.1 01:17:41 10° NNE 01:22:17 39° E 01:22:17 39° E
Cosmos 2219 Rocket 4.0 01:23:11 20° NW 01:23:34 20° NW 01:27:39 10° N
Cosmos 2278 Rocket 3.0 01:28:43 10° NNW 01:32:30 42° NW 01:32:30 42° NW
Cosmos 1680 Rocket 3.7 01:42:34 68° ENE 01:42:34 68° ENE 01:47:20 10° NNE
Cosmos 1420 Rocket 4.4 01:38:35 10° NNW 01:43:48 59° ENE 01:44:11 58° E
Meteor 2-10 4.3 01:38:13 10° N 01:43:55 71° ENE 01:44:15 69° ESE
COBE Rocket 4.5 01:39:25 10° NNE 01:43:15 50° ENE 01:43:15 50° ENE
Cosmos 2195 Rocket 4.5 01:44:51 68° SE 01:45:28 74° E 01:51:41 10° NNE
ADEOS II 2.9 01:42:00 10° NNE 01:46:57 41° E 01:47:24 40° ESE
Nadezhda 4 Rocket 4.0 01:50:48 64° WNW 01:50:48 64° WNW 01:56:48 10° N
ATLAS 2AS CENTAUR R/B 2.8 01:49:36 63° S 01:50:47 75° ESE 01:57:58 10° NE
Cosmos 1943 Rocket 2.2 01:46:45 10° NNW 01:51:51 71° NW 01:51:51 71° NW
Cosmos 1428 Rocket 4.3 01:53:46 76° SSW 01:54:18 88° W 02:00:34 10° N
SL-16 R/B 2.6 01:54:58 50° SE 01:55:26 51° ESE 02:00:54 10° NE
ATLAS 5 CENTAUR R/B 2.7 01:51:15 10° NNW 01:56:11 56° NE 02:02:17 10° SE
Cosmos 2056 Rocket 3.8 01:52:07 10° NNW 01:57:31 66° ENE 01:58:37 53° ESE
Cosmos 1340 Rocket 4.0 02:01:32 40° NE 02:01:32 40° NE 02:04:23 10° NNE
CZ-2C R/B 2.7 02:00:14 64° SE 02:00:57 75° ENE 02:06:16 10° N
Meteor 1-27 Rocket 3.6 02:01:01 73° W 02:01:01 73° W 02:06:39 10° N
Sich 1 4.3 01:59:01 10° NNW 02:01:28 33° NNW 02:01:28 33° NNW
GEOS 3 Rocket 4.3 01:58:49 10° ESE 02:04:00 54° NE 02:09:10 10° NNW
GP-B 3.5 02:00:08 10° N 02:03:57 62° NE 02:03:57 62° NE
SL-16 R/B 3.1 02:00:25 19° SE 02:04:52 54° ENE 02:10:56 10° N
Cosmos 1624 Rocket 4.0 02:02:14 10° NNW 02:07:28 78° ENE 02:08:03 68° SE
ALOS 3.5 02:05:05 10° NNE 02:09:17 33° E 02:10:18 30° ESE
NPP 3.7 02:06:43 10° N 02:12:03 62° WNW 02:12:10 62° WNW
Cosmos 1340 4.2 02:08:48 10° N 02:10:59 32° NNE 02:10:59 32° NNE
Cosmos 1805 4.3 02:10:46 10° N 02:13:21 41° NNE 02:13:21 41° NNE
USA 215 3.6 02:12:39 10° NE 02:19:03 59° NNW 02:21:28 38° W
COSMOS 2441 4.2 02:19:22 10° N 02:24:15 79° WNW 02:24:29 76° WSW
Cosmos 1666 Rocket 3.7 02:20:15 10° N 02:24:42 71° E 02:25:08 65° ESE
Cosmos 1553 Rocket 4.3 02:19:32 10° N 02:25:44 64° E 02:30:02 20° SSE
NOSS 3-1 (C) 4.1 02:22:26 10° NW 02:29:58 89° SW 02:39:01 10° SSE
ATLAS 3B R/B 3.6 02:29:03 10° NNW 02:36:49 59° NE 02:44:27 10° SE
MSX 4.2 02:32:03 10° N 02:37:32 46° WNW 02:38:35 42° W
Cosmos 2026 Rocket 4.2 02:37:39 45° WSW 02:39:03 53° WNW 02:45:19 10° N
Cosmos 1371 Rocket 4.1 02:34:43 10° NNW 02:39:50 53° WSW 02:39:56 52° WSW
Cosmos 1656 Rocket 3.9 02:35:57 10° NNW 02:41:21 68° ENE 02:46:45 10° SSE
Cosmos 1328 Rocket 3.4 02:41:11 70° SSW 02:41:39 83° W 02:46:06 10° N
Cosmos 1626 2.3 02:42:31 58° NE 02:42:31 58° NE 02:45:19 10° NNE
Cosmos 2237 Rocket 3.6 02:41:27 22° WNW 02:42:47 24° NW 02:47:21 10° N
USA 308 4.5 02:42:30 20° NW 02:43:24 22° NNW 02:46:31 10° NE
ISS -1.3 02:44:09 15° SE 02:44:09 15° SE 02:45:47 10° E
Cosmos 1092 Rocket 4.3 02:42:40 42° WSW 02:43:56 47° WNW 02:49:54 10° N
IDEFIX/ARIANE 42P 3.5 02:39:37 10° N 02:44:09 31° WNW 02:44:41 31° WNW
Cosmos 2369 Rocket 2.7 02:40:14 10° NNW 02:45:46 58° ENE 02:51:16 10° SE
Cosmos 1151 Rocket 4.2 02:47:21 29° WNW 02:47:21 29° WNW 02:50:43 10° NNW
Cosmos 921 Rocket 3.6 02:48:29 40° WNW 02:48:31 40° WNW 02:52:40 10° N
CZ-2C R/B 3.3 02:45:11 10° N 02:50:25 57° WNW 02:51:58 42° SW
CZ-2D R/B 2.8 02:45:43 10° N 02:50:39 37° WNW 02:51:41 34° W
Cosmos 1975 3.2 02:47:13 10° NNW 02:50:23 47° WNW 02:50:23 47° WNW
USA 267 3.1 02:46:02 10° SE 02:52:32 79° SW 02:59:05 10° NW
SAR-Lupe-1 4.3 02:50:44 10° N 02:54:03 56° WNW 02:54:03 56° WNW
Cosmos 1633 Rocket 2.9 02:49:57 10° NNW 02:54:17 67° W 02:55:02 55° SSW
Cosmos 2297 3.7 02:48:39 10° NNW 02:54:27 90° WSW 03:00:11 10° SSE
AQUA 4.0 02:51:09 10° N 02:55:45 53° WNW 02:56:42 45° WSW
SAR-Lupe-4 4.0 02:55:00 10° N 02:58:13 46° WNW 02:58:13 46° WNW
Resurs 1-4 Rocket 3.2 02:57:51 10° N 03:02:15 28° WNW 03:03:21 26° W
Cosmos 494 Rocket 4.1 03:02:00 40° WSW 03:03:35 58° WNW 03:08:39 10° NNE
Cosmos 1766 3.0 03:02:03 10° N 03:05:45 85° E 03:07:19 33° S
Meteor 2-4 Rocket 4.0 03:04:17 36° WSW 03:06:01 47° WNW 03:11:27 10° N
Iridium 51 4.0 03:05:13 43° SSE 03:06:08 70° E 03:09:33 10° N
Cosmos 1943 3.6 03:03:45 22° S 03:07:21 61° ESE 03:12:58 10° NNE
Delta 2 Rocket 4.4 03:10:34 33° SSW 03:11:27 36° S 03:16:01 10° ESE
Cosmos 1048 Rocket 4.0 03:09:34 34° SW 03:11:50 67° WNW 03:17:04 10° NNE
FENGYUN 3A 4.2 03:07:21 10° N 03:12:23 41° WNW 03:14:20 30° WSW
UNK 3.7 03:10:15 28° S 03:12:34 60° W 03:17:08 10° NNW
Cosmos 2263 4.4 03:09:47 10° NNW 03:15:26 75° ENE 03:21:06 10° SSE
Thor Agena Rocket 4.3 03:11:42 10° NNE 03:16:36 48° E 03:21:30 10° S
CZ-2C R/B 2.9 03:17:18 10° NNE 03:22:26 62° E 03:27:26 10° S
USA 306 3.6 03:22:03 24° S 03:23:37 36° SE 03:26:58 10° ENE
H-2A R/B 4.4 03:20:01 10° NE 03:23:51 21° E 03:27:44 10° SE
ADEOS II 3.2 03:22:02 10° N 03:26:21 27° WNW 03:28:17 21° W
PAYLOAD A 4.4 03:22:14 10° NNE 03:26:57 56° E 03:31:33 10° S
EO 1 Delta rocket 4.4 03:23:28 10° N 03:27:54 44° WNW 03:30:33 24° SW
Cosmos 1707 2.7 03:27:10 18° S 03:29:49 75° E 03:33:31 10° NNE
Cosmos 1842 3.1 03:32:03 24° SSW 03:34:08 68° W 03:37:52 10° N
IRS-1D 3.8 03:29:29 10° NNE 03:34:40 69° ESE 03:39:54 10° S
CZ-4 R/B 3.8 03:30:55 10° N 03:35:34 63° WNW 03:38:49 19° SSW
Cosmos 2266 Rocket 3.9 03:32:14 15° SSW 03:37:16 65° W 03:43:16 10° N
Cosmos 1110 Rocket 4.0 03:32:16 10° NNW 03:37:28 59° WSW 03:42:39 10° S
Cosmos 1603 3.9 03:34:08 12° SSW 03:39:17 71° ESE 03:44:55 10° NNE
SL-16 R/B 3.5 03:36:50 17° W 03:39:49 26° NW 03:44:34 10° N
YAOGAN 6 2.4 03:36:42 10° NNE 03:40:00 81° ESE 03:42:44 14° S
ATLAS 5 CENTAUR R/B 3.1 03:35:34 10° WNW 03:40:04 27° WSW 03:45:18 10° S
SL-08 ROCKET BODY 4.4 03:35:18 12° SSW 03:40:49 70° W 03:46:54 10° N
CZ-2C R/B 4.3 03:41:42 14° W 03:41:44 14° W 03:44:34 10° WNW
GEOS 3 Rocket 4.4 03:37:34 10° S 03:42:09 29° WSW 03:46:45 10° WNW
ATLAS 2AS CENTAUR R/B 3.9 03:37:01 14° W 03:42:21 31° NW 03:48:33 10° NNE
Cosmos 1515 Rocket 4.1 03:40:24 22° SW 03:42:45 39° WNW 03:46:55 10° N
S3M 4.0 03:37:23 10° NNW 03:43:29 60° W 03:49:38 10° S
Cosmos 1452 Rocket 3.7 03:40:50 10° NNW 03:45:51 47° WSW 03:50:51 10° S
ALOS 3.4 03:42:31 10° N 03:46:21 26° WNW 03:48:37 18° WSW
Cosmos 1869 Rocket 3.5 03:44:12 10° N 03:48:33 84° E 03:52:51 10° S
SL-16 R/B 3.5 03:45:30 17° SW 03:48:45 25° W 03:53:48 10° NW
Envisat 3.2 03:46:20 10° N 03:51:17 55° WNW 03:55:52 12° SSW
Cosmos 2228 Rocket 3.7 03:58:01 10° S 04:02:19 59° E 04:06:39 10° NNE
Cosmos 1331 Rocket 4.5 03:57:43 10° NW 04:02:35 38° WSW 04:07:25 10° SSW
NOSS 3-1 (A) 4.3 03:55:36 10° NW 04:03:00 51° WSW 04:11:41 10° S
Cosmos 1674 3.7 04:01:58 16° WSW 04:03:47 24° WNW 04:06:41 10° NNW
Meteor 1-22 Rocket 4.2 04:00:49 10° N 04:06:22 85° E 04:11:41 10° S
Lacrosse 5 3.7 04:02:03 10° NW 04:06:41 33° NNE 04:11:17 10° E
Meteor 1-13 Rocket 4.3 04:01:02 10° SSW 04:06:45 66° WNW 04:12:38 10° N
CZ-3 R/B 4.0 03:50:13 13° WSW 04:10:56 38° S 04:18:55 10° ESE
USA 229 DEB 4.1 04:05:18 10° NW 04:12:52 87° NE 04:21:02 10° SE
USA 229 4.1 04:05:24 10° NW 04:12:57 87° NE 04:21:05 10° SE
Cosmos 1908 3.3 04:09:41 10° NNW 04:13:11 46° W 04:16:38 10° SSW
USA 305 0.6 04:14:01 17° SW 04:15:04 70° SE 04:16:59 10° NE
DMSP B5D2-2 4.1 04:10:05 10° S 04:15:10 57° W 04:20:18 10° NNW
Cosmos 1470 3.7 04:15:05 10° NNW 04:18:17 26° W 04:21:26 10° SSW
Meteor 1-15 Rocket 4.3 04:12:44 10° NNW 04:18:38 75° W 04:24:23 10° S
Cosmos 1733 Rocket 3.6 04:14:40 10° N 04:18:59 64° E 04:23:15 10° SSE
ISS -3.7 04:17:01 11° WSW 04:20:09 72° NNW 04:23:29 10° NE
Cosmos 1862 Rocket 4.0 04:17:16 10° S 04:21:36 65° E 04:25:55 10° NNE
Cosmos 1655 Rocket 4.5 04:16:57 10° SW 04:22:46 41° WNW 04:28:39 10° N
USA 276 2.3 04:22:08 10° SW 04:24:50 52° SE 04:27:41 10° ENE
ATLAS 3B R/B 3.5 04:20:21 10° NW 04:27:18 36° WSW 04:34:05 10° S
Cosmos 1300 3.0 04:24:51 10° N 04:28:26 66° E 04:31:58 10° SSE
Cosmos 2315 Rocket 4.5 04:23:29 10° NNW 04:29:10 39° W 04:34:51 10° SSW
Cosmos 2369 Rocket 3.4 04:25:18 10° NW 04:29:17 20° W 04:33:14 10° SW
Aureole 3 4.2 04:24:11 10° S 04:30:13 88° E 04:35:04 10° N
BREEZE-M DEB (TANK) 3.3 04:27:09 10° W 04:30:34 26° NNW 04:32:33 10° NE
Gbstr 26 Del rocket 3.0 04:27:00 10° NW 04:30:55 68° NNE 04:34:36 10° ESE
Cosmos 1244 Rocket 4.5 04:24:53 10° SSW 04:31:05 77° W 04:37:15 10° N
